Change the Weather History Date:

Sunday, July 7, 2013

  Actual Average Record
Temperature  
Mean Temperature 58 °F -  
Max Temperature 77 °F 68 °F 81 °F (2012)
Min Temperature 39 °F 43 °F 39 °F (2013)
Degree Days  
Heating Degree Days 7    
Growing Degree Days 8 (Base 50)    
Moisture  
Dew Point 39 °F    
Average Humidity 50    
Maximum Humidity 87    
Minimum Humidity 17    
Precipitation  
Precipitation 0.00 in - - ()
Sea Level Pressure  
Sea Level Pressure 29.98 in    
Wind  
Wind Speed 2 mph ()    
Max Wind Speed 9 mph    
Max Gust Speed 18 mph    
Visibility 9.0 miles    
Events      
Averages and records for this station are not official NWS values.
T = Trace of Precipitation, MM = Missing Value Source: Averaged Metar Reports

Daily Weather History Graph

Daily Weather History Graph

Search for Another Location

Airport or City:

Trip Planner

Search our weather history database for the weather conditions in past years. The results will help you decide how hot, cold, wet, or windy it might be!

Date:

Astronomy

Jul. 07, 2013 Rise Set
Actual Time 5:00 AM PDT 9:21 PM PDT
Civil Twilight 4:14 AM PDT 10:06 PM PDT
Nautical Twilight 3:07 AM PDT 11:13 PM PDT
Astronomical Twilight 1:43 AM PDT 12:38 AM PDT
Moon 4:49 AM PDT (7/7) 8:38 PM PDT (7/7)
Length of Visible Light 17h 51m
Length of Day
16h 21m
Waning Crescent, 0% of the Moon is Illuminated
Jul 7
Waning Crescent
Jul 8
New
Jul 15
First Quarter
Jul 22
Full
Jul 29
Last Quarter

Hourly Weather History & Observations

Time (PDT) Temp. Dew Point Humidity Pressure Visibility Wind Dir Wind Speed Gust Speed Precip Events Conditions
12:00 AM 46.4 °F 37.4 °F 71% 30.01 in 9.0 mi Calm Calm - N/A   Clear
1:00 AM 44.6 °F 37.4 °F 76% 30.02 in 9.0 mi Calm Calm - N/A   Clear
2:00 AM 43 °F 36 °F 69% 30.01 in 9 mi Calm Calm - -  
2:00 AM 42.8 °F 35.6 °F 76% 30.01 in 9.0 mi Calm Calm - N/A   Clear
3:00 AM 41.0 °F 35.6 °F 81% 30.00 in 9.0 mi Calm Calm - N/A   Clear
4:00 AM 41.0 °F 35.6 °F 81% 30.01 in 9.0 mi Calm Calm - N/A   Clear
5:00 AM 39 °F 35 °F 80% 30.01 in 9 mi Calm Calm - -  
5:00 AM 39.2 °F 35.6 °F 87% 30.01 in 9.0 mi Calm Calm - N/A   Clear
6:00 AM 41.0 °F 37.4 °F 87% 30.01 in 9.0 mi Calm Calm - N/A   Clear
7:00 AM 50.0 °F 41.0 °F 71% 30.00 in 9.0 mi Calm Calm - N/A   Clear
8:00 AM 53 °F 43 °F 59% 30.01 in 9 mi Calm Calm - -  
8:00 AM 53.6 °F 42.8 °F 67% 30.01 in 9.0 mi Calm Calm - N/A   Partly Cloudy
9:00 AM 57.2 °F 42.8 °F 59% 30.01 in 9.0 mi SE 2.3 mph - N/A   Clear
10:00 AM 62.6 °F 44.6 °F 52% 30.01 in 9.0 mi ESE 2.3 mph - N/A   Partly Cloudy
11:00 AM 65 °F 41 °F 30% 30.00 in 9 mi Calm Calm - -  
11:00 AM 64.4 °F 41.0 °F 42% 30.00 in 9.0 mi Calm Calm - N/A   Partly Cloudy
12:00 PM 69.8 °F 39.2 °F 33% 29.98 in 9.0 mi NNE 2.3 mph - N/A   Partly Cloudy
1:00 PM 71.6 °F 39.2 °F 31% 29.96 in 9.0 mi NNW 2.3 mph - N/A   Clear
2:00 PM 74 °F 38 °F 17% 29.94 in 9 mi East 4.6 mph - -  
2:00 PM 75.2 °F 37.4 °F 25% 29.94 in 9.0 mi SSE 3.5 mph - N/A   Partly Cloudy
3:00 PM 71.6 °F 37.4 °F 29% 29.95 in 9.0 mi NNW 5.8 mph - N/A   Partly Cloudy
4:00 PM 71.6 °F 37.4 °F 29% 29.95 in 9.0 mi NNE 6.9 mph - N/A   Partly Cloudy
5:00 PM 71 °F 38 °F 19% 29.95 in 9 mi NW 9.2 mph - -  
5:00 PM 71.6 °F 37.4 °F 29% 29.95 in 9.0 mi NW 8.1 mph 18.4 mph N/A   Partly Cloudy
6:00 PM 68.0 °F 37.4 °F 33% 29.94 in 9.0 mi WNW 8.1 mph 17.3 mph N/A   Overcast
7:00 PM 68.0 °F 37.4 °F 33% 29.93 in 9.0 mi NNW 3.5 mph - N/A   Partly Cloudy
8:00 PM 66 °F 40 °F 27% 29.94 in 9 mi NW 6.9 mph - -  
8:00 PM 66.2 °F 39.2 °F 37% 29.94 in 9.0 mi NW 5.8 mph - N/A   Scattered Clouds
9:00 PM 64.4 °F 42.8 °F 45% 29.94 in 9.0 mi NW 6.9 mph - N/A   Overcast
10:00 PM 62.6 °F 41.0 °F 45% 29.95 in 9.0 mi WNW 3.5 mph - N/A   Mostly Cloudy
11:00 PM 60 °F 42 °F 40% 29.96 in 9 mi West 4.6 mph - -  
11:00 PM 60.8 °F 42.8 °F 52% 29.96 in 9.0 mi West 4.6 mph - N/A   Partly Cloudy